Total_Precipitation_Accumulation
0.11 0.11 0.11 0.12 0.12 0.13 0.14 0.16 0.17 0.16 0.16 0.16 0.17 0.18 0.21 0.23 0.21 0.17 0.14 0.12 0.08 0.08 0.14 0.29 0.54 0.80 1.00 1.11 1.12 0.98 0.90 0.77 0.60 0.51 0.48 0.55 0.58 0.57 0.61 0.70 0.67 0.55 0.51
0.03 0.03 0.03 0.03 0.02 0.02 0.02 0.03 0.04 0.05 0.06 0.08 0.09 0.11 0.13 0.16 0.18 0.19 0.19 0.21 0.16 0.13 0.14 0.20 0.33 0.56 0.87 1.09 1.20 1.18 1.05 0.96 0.79 0.62 0.54 0.53 0.59 0.59 0.58 0.63 0.71 0.67 0.56
0.01 0.02 0.01 0.01 0.00 0.00 0.00 0.00 0.00 0.01 0.01 0.02 0.03 0.05 0.07 0.08 0.12 0.15 0.18 0.22 0.23 0.20 0.17 0.20 0.27 0.42 0.71 1.01 1.19 1.33 1.25 1.11 1.00 0.86 0.67 0.55 0.57 0.61 0.60 0.61 0.68 0.75 0.71
0.00 0.01 0.01 0.01 0.00 0.00 0.01 0.01 0.01 0.00 0.01 0.01 0.02 0.03 0.05 0.06 0.06 0.09 0.14 0.16 0.19 0.21 0.20 0.20 0.28 0.42 0.60 0.85 1.13 1.39 1.49 1.34 1.24 1.18 0.99 0.76 0.61 0.62 0.63 0.62 0.67 0.75 0.82
0.00 0.00 0.01 0.01 0.00 0.01 0.02 0.02 0.02 0.02 0.01 0.01 0.02 0.02 0.02 0.04 0.05 0.08 0.11 0.14 0.17 0.18 0.20 0.21 0.25 0.34 0.47 0.70 1.04 1.38 1.72 1.76 1.58 1.46 1.30 1.11 0.87 0.70 0.68 0.66 0.68 0.76 0.84
0.00 0.00 0.01 0.01 0.01 0.01 0.01 0.01 0.02 0.02 0.02 0.01 0.02 0.01 0.00 0.01 0.02 0.05 0.07 0.12 0.16 0.17 0.19 0.24 0.27 0.25 0.27 0.39 0.63 1.01 1.38 1.73 1.80 1.71 1.61 1.42 1.20 0.97 0.82 0.75 0.73 0.80 0.91
0.00 0.00 0.00 0.00 0.00 0.01 0.01 0.01 0.02 0.03 0.02 0.02 0.02 0.01 0.00 0.00 0.01 0.02 0.07 0.12 0.17 0.23 0.29 0.34 0.40 0.38 0.30 0.29 0.32 0.46 0.80 1.29 1.66 1.83 1.83 1.77 1.54 1.28 1.06 0.90 0.85 0.88 0.95
0.00 0.00 0.00 0.00 0.00 0.01 0.01 0.01 0.02 0.04 0.04 0.03 0.07 0.11 0.05 0.01 0.00 0.01 0.04 0.09 0.17 0.27 0.39 0.44 0.49 0.50 0.46 0.36 0.25 0.25 0.37 0.73 1.28 1.75 1.89 1.91 1.94 1.73 1.37 1.13 0.99 1.00 1.05
0.00 0.00 0.00 0.00 0.00 0.01 0.01 0.01 0.02 0.04 0.06 0.04 0.07 0.24 0.32 0.16 0.05 0.00 0.01 0.04 0.08 0.12 0.20 0.29 0.36 0.41 0.47 0.48 0.39 0.30 0.28 0.43 0.79 1.40 1.90 2.00 2.04 2.12 1.88 1.45 1.18 1.09 1.12
0.00 0.00 0.00 0.00 0.00 0.01 0.01 0.02 0.03 0.05 0.11 0.12 0.08 0.12 0.22 0.27 0.29 0.13 0.01 0.02 0.02 0.04 0.06 0.10 0.16 0.23 0.34 0.44 0.48 0.43 0.36 0.37 0.57 0.94 1.57 2.10 2.15 2.23 2.32 1.98 1.54 1.28 1.20
0.00 0.00 0.00 0.00 0.00 0.01 0.02 0.03 0.04 0.06 0.12 0.17 0.17 0.15 0.14 0.13 0.19 0.28 0.12 0.02 0.03 0.03 0.03 0.05 0.07 0.10 0.16 0.27 0.36 0.43 0.45 0.40 0.50 0.71 1.06 1.71 2.29 2.45 2.54 2.41 1.96 1.53 1.29
0.00 0.00 0.00 0.00 0.01 0.01 0.03 0.04 0.06 0.09 0.11 0.15 0.18 0.20 0.24 0.26 0.20 0.26 0.22 0.07 0.03 0.03 0.04 0.05 0.06 0.07 0.10 0.16 0.23 0.35 0.43 0.44 0.45 0.56 0.69 1.06 1.80 2.46 2.67 2.56 2.25 1.86 1.48
0.01 0.00 0.01 0.01 0.01 0.03 0.04 0.07 0.10 0.11 0.12 0.16 0.19 0.21 0.22 0.22 0.21 0.26 0.29 0.17 0.07 0.02 0.03 0.05 0.06 0.09 0.11 0.14 0.18 0.25 0.32 0.39 0.45 0.50 0.51 0.57 0.94 1.77 2.54 2.78 2.52 2.15 1.82
0.01 0.01 0.01 0.01 0.02 0.04 0.07 0.10 0.13 0.14 0.16 0.19 0.19 0.21 0.22 0.19 0.21 0.26 0.32 0.36 0.28 0.09 0.03 0.04 0.05 0.08 0.11 0.13 0.15 0.19 0.20 0.26 0.35 0.41 0.44 0.46 0.53 0.88 1.66 2.58 3.09 2.77 2.25
0.01 0.01 0.01 0.02 0.04 0.07 0.10 0.12 0.15 0.17 0.20 0.22 0.23 0.24 0.26 0.24 0.25 0.26 0.28 0.38 0.53 0.37 0.10 0.03 0.05 0.06 0.09 0.13 0.17 0.17 0.17 0.20 0.27 0.34 0.38 0.41 0.45 0.55 0.86 1.53 2.48 3.15 3.02
0.01 0.01 0.03 0.05 0.09 0.14 0.17 0.18 0.19 0.20 0.24 0.26 0.28 0.30 0.31 0.31 0.31 0.30 0.32 0.32 0.40 0.48 0.29 0.05 0.06 0.07 0.09 0.12 0.17 0.18 0.19 0.21 0.22 0.27 0.33 0.35 0.39 0.48 0.63 0.93 1.51 2.42 3.01
0.02 0.03 0.06 0.09 0.14 0.20 0.24 0.27 0.28 0.30 0.31 0.28 0.30 0.34 0.35 0.35 0.35 0.33 0.34 0.35 0.34 0.40 0.39 0.10 0.04 0.07 0.13 0.16 0.18 0.18 0.19 0.18 0.16 0.20 0.26 0.33 0.38 0.45 0.56 0.74 1.00 1.58 2.43
0.05 0.07 0.11 0.16 0.20 0.24 0.27 0.36 0.42 0.44 0.47 0.46 0.44 0.43 0.44 0.45 0.47 0.45 0.45 0.41 0.36 0.35 0.40 0.26 0.07 0.06 0.13 0.20 0.26 0.26 0.22 0.19 0.16 0.16 0.21 0.28 0.35 0.41 0.51 0.63 0.79 1.07 1.66
0.09 0.14 0.21 0.29 0.34 0.36 0.37 0.38 0.49 0.63 0.70 0.72 0.72 0.71 0.68 0.65 0.66 0.64 0.62 0.55 0.44 0.36 0.35 0.34 0.18 0.10 0.14 0.23 0.34 0.35 0.30 0.23 0.17 0.18 0.21 0.25 0.31 0.35 0.42 0.52 0.65 0.82 1.08
0.19 0.27 0.34 0.45 0.52 0.60 0.73 0.73 0.72 0.67 0.68 0.77 0.82 0.86 0.91 0.94 0.94 0.89 0.87 0.72 0.57 0.48 0.42 0.41 0.31 0.20 0.17 0.24 0.42 0.47 0.42 0.34 0.24 0.20 0.23 0.24 0.29 0.35 0.37 0.39 0.44 0.58 0.83
0.26 0.34 0.39 0.40 0.43 0.65 1.11 1.27 0.99 0.63 0.53 0.54 0.58 0.62 0.73 0.89 1.02 1.10 1.14 0.99 0.85 0.79 0.68 0.60 0.49 0.37 0.30 0.35 0.49 0.55 0.60 0.53 0.45 0.34 0.27 0.23 0.24 0.26 0.27 0.31 0.39 0.49 0.66
0.19 0.29 0.35 0.33 0.32 0.53 0.98 1.13 0.75 0.44 0.37 0.36 0.38 0.38 0.43 0.59 0.71 0.83 0.98 1.04 1.10 1.16 1.08 0.91 0.73 0.58 0.43 0.40 0.48 0.65 0.72 0.77 0.72 0.51 0.43 0.36 0.31 0.29 0.26 0.25 0.30 0.38 0.53
0.12 0.17 0.19 0.17 0.20 0.39 0.76 0.87 0.55 0.27 0.21 0.19 0.21 0.22 0.23 0.32 0.45 0.50 0.59 0.70 0.85 1.01 1.15 1.14 1.07 0.81 0.57 0.48 0.57 0.72 0.78 0.83 0.76 0.67 0.68 0.66 0.54 0.43 0.35 0.34 0.38 0.39 0.46
0.10 0.12 0.11 0.07 0.07 0.20 0.57 0.75 0.47 0.20 0.13 0.13 0.16 0.14 0.13 0.18 0.33 0.44 0.54 0.54 0.55 0.71 0.96 1.14 1.24 1.06 0.80 0.69 0.79 0.94 1.02 1.02 0.91 0.89 0.92 0.94 0.74 0.59 0.54 0.50 0.47 0.42 0.42
0.08 0.10 0.09 0.05 0.03 0.08 0.40 0.73 0.55 0.21 0.13 0.12 0.13 0.14 0.12 0.12 0.28 0.44 0.46 0.41 0.37 0.47 0.61 0.86 1.05 1.07 0.99 0.97 1.03 1.23 1.32 1.35 1.27 1.11 1.09 1.12 0.99 0.78 0.72 0.72 0.65 0.53 0.45
0.04 0.05 0.06 0.04 0.02 0.03 0.22 0.65 0.70 0.29 0.16 0.12 0.11 0.11 0.18 0.24 0.33 0.38 0.37 0.37 0.41 0.39 0.38 0.44 0.51 0.61 0.67 0.70 0.89 1.12 1.24 1.32 1.34 1.39 1.25 1.16 1.20 1.11 1.12 0.95 0.77 0.55 0.45